EBOS Airport Information

Runway Information
Runway 08 Length 10499 ft width 148 ft
Elevation 15 ft Threshold 985 ft Heading 77
Runway 26 Length 10499 ft Width 148 ft
Elevation 13 ft Threshold 1362 ft Heading 257
Runway 14 Length 2057 ft width 148 ft
Elevation 13 ft Threshold 0 ft Heading 137
Runway 32 Length 2057 ft Width 148 ft
Elevation 13 ft Threshold 0 ft Heading 317
Airport Frequencies
Type APP Name APP Frequency 120.6 MHZ
Type ATIS Name ATIS Frequency 126.12 MHZ
Type GND Name GND Frequency 121.975 MHZ
Type TWR Name TWR Frequency 118.175 MHZ
Airport Navaids
Type NDB Name Oostende Frequency 400 KHZ
Airport Weather Information & NOTAM
ADDS - METARS form results

(0134 UTC 19 August 2018)
 
METAR text: EBOS 190120Z 21007KT 9999 BKN035 16/13 Q1022 NOSIG
Conditions at: EBOS (OOSTENDE AIRPORT, BE) observed 0120 UTC 19 August 2018
Temperature: 16.0°C (61°F)
Dewpoint: 13.0°C (55°F) [RH = 82%]
Pressure (altimeter): 30.18 inches Hg (1022.0 mb)
Winds: from the SSW (210 degrees) at 8 MPH (7 knots; 3.6 m/s)
Visibility: 6 or more miles (10+ km)
Ceiling: 3500 feet AGL
Clouds: broken clouds at 3500 feet AGL
Weather: no significant weather observed at this time

METAR text: EBOS 190050Z 21007KT 9999 BKN035 16/13 Q1022 NOSIG
Conditions at: EBOS (OOSTENDE AIRPORT, BE) observed 0050 UTC 19 August 2018
Temperature: 16.0°C (61°F)
Dewpoint: 13.0°C (55°F) [RH = 82%]
Pressure (altimeter): 30.18 inches Hg (1022.0 mb)
Winds: from the SSW (210 degrees) at 8 MPH (7 knots; 3.6 m/s)
Visibility: 6 or more miles (10+ km)
Ceiling: 3500 feet AGL
Clouds: broken clouds at 3500 feet AGL
Weather: no significant weather observed at this time